This is the latest recevied weather packets stored in our database for station/object EA2FBA-10. If no packets are shown the sender has not sent any weather packets the latest 10 day(s).
| Time | Temp. | Humidity | Pressure | Rain* | Wind** | Luminosity | Snow |
|---|---|---|---|---|---|---|---|
| 1788470770 | 22.78° C | 47% | 961.2 hPa | - | - | - | - |
| 1788469870 | 23.33° C | 46% | 961.3 hPa | - | - | - | - |
| 1788468979 | 23.33° C | 46% | 961.4 hPa | - | - | - | - |
| 1788468970 | 23.33° C | 46% | 961.4 hPa | - | - | - | - |
| 1788468070 | 23.89° C | 45% | 961.6 hPa | - | - | - | - |
| 1788467170 | 23.89° C | 44% | 961.3 hPa | - | - | - | - |
| 1788466279 | 24.44° C | 44% | 961.1 hPa | - | - | - | - |
| 1788466269 | 24.44° C | 44% | 961.1 hPa | - | - | - | - |
| 1788465369 | 24.44° C | 44% | 961.4 hPa | - | - | - | - |
| 1788464469 | 25° C | 43% | 961 hPa | - | - | - | - |
| 1788463579 | 25° C | 42% | 960.7 hPa | - | - | - | - |
| 1788463569 | 25° C | 42% | 960.7 hPa | - | - | - | - |
| 1788462669 | 25.56° C | 42% | 960.4 hPa | - | - | - | - |
| 1788461769 | 25.56° C | 41% | 960.5 hPa | - | - | - | - |
| 1788460878 | 25.56° C | 41% | 960.3 hPa | - | - | - | - |
| 1788460869 | 25.56° C | 41% | 960.3 hPa | - | - | - | - |
| 1788459978 | 26.11° C | 38% | 960.3 hPa | - | - | - | - |
| 1788459969 | 26.11° C | 38% | 960.3 hPa | - | - | - | - |
| 1788459078 | 27.22° C | 35% | 960.3 hPa | - | - | - | - |
| 1788459069 | 27.22° C | 35% | 960.3 hPa | - | - | - | - |
| 1788458168 | 27.22° C | 33% | 960.3 hPa | - | - | - | - |
| 1788457278 | 26.67° C | 37% | 960.2 hPa | - | - | - | - |
| 1788457268 | 26.67° C | 37% | 960.2 hPa | - | - | - | - |
| 1788456406 | 28.33° C | 34% | 960.2 hPa | - | - | - | - |
| 1788456368 | 28.33° C | 34% | 960.2 hPa | - | - | - | - |
* Rain since midnight (hover to see other rain measurements)
** Current wind speed in m/s (hover to see current wind gust speed)